Blacksburg, VA

5:51 PM EST on February 23, 2018 (GMT -0500)
Virginia Tech

Weather History for KBCB - November, 2013

Change the Weather History Date:

Wednesday, November 6, 2013

  Actual Average Record
Temperature  
Mean Temperature 54 °F 47 °F  
Max Temperature 66 °F 60 °F 79 °F (1961)
Min Temperature 42 °F 34 °F 13 °F (1967)
Degree Days  
Heating Degree Days 11 18  
Month to date heating degree days 107 106  
Since 1 July heating degree days 579 633  
Cooling Degree Days 0 0  
Month to date cooling degree days 0 0  
Year to date cooling degree days 568 573  
Growing Degree Days 5 (Base 50)    
Moisture  
Dew Point 49 °F    
Average Humidity 79    
Maximum Humidity 100    
Minimum Humidity 58    
Precipitation  
Precipitation 0.01 in 0.09 in 1.07 in (2003)
Month to date precipitation 0.16 0.57  
Year to date precipitation 43.48 35.64  
Snow  
Snow 0.00 in - - ()
Month to date snowfall 0.0  
Since 1 July snowfall T  
Since 1 September snowfall T  
Snow Depth 0.00 in    
Sea Level Pressure  
Sea Level Pressure 30.32 in    
Wind  
Wind Speed 2 mph (South)    
Max Wind Speed 9 mph    
Max Gust Speed 16 mph    
Visibility 8 miles    
Events Rain    
T = Trace of Precipitation, MM = Missing Value Source: NWS Daily Summary

Daily Weather History Graph

Daily Weather History Graph

Search for Another Location

Airport or City:

Trip Planner

Search our weather history database for the weather conditions in past years. The results will help you decide how hot, cold, wet, or windy it might be!

Date:

Astronomy

Nov. 06, 2013 Rise Set
Actual Time 6:51 AM EST 5:18 PM EST
Civil Twilight 6:24 AM EST 5:45 PM EST
Nautical Twilight 5:53 AM EST 6:16 PM EST
Astronomical Twilight 5:22 AM EST 6:47 PM EST
Moon 10:03 AM EST (11/6) 8:23 PM EST (11/6)
Length of Visible Light 11h 21m
Length of Day
10h 27m
Waxing Crescent, 13% of the Moon is Illuminated
Nov 6
Waxing Crescent
Nov 10
First Quarter
Nov 17
Full
Nov 25
Last Quarter
Dec 2
New

Hourly Weather History & Observations

Time (EST) Temp. Windchill Dew Point Humidity Pressure Visibility Wind Dir Wind Speed Gust Speed Precip Events Conditions
12:15 AM 44.6 °F 43.1 °F 44.6 °F 100% 30.46 in 5.0 mi East 3.5 mph - N/A   Overcast
12:35 AM 44.6 °F 42.2 °F 44.6 °F 100% 30.46 in 5.0 mi East 4.6 mph - N/A   Overcast
12:55 AM 44.6 °F - 44.6 °F 100% 30.46 in 4.0 mi Calm Calm - N/A   Overcast
1:15 AM 44.6 °F - 44.6 °F 100% 30.46 in 3.0 mi Calm Calm - N/A   Overcast
1:35 AM 44.6 °F - 44.6 °F 100% 30.45 in 4.0 mi Calm Calm - N/A Rain Light Rain
1:55 AM 44.6 °F - 44.6 °F 100% 30.44 in 4.0 mi Calm Calm - N/A   Overcast
2:15 AM 44.6 °F - 44.6 °F 100% 30.44 in 4.0 mi Calm Calm - N/A   Overcast
2:35 AM 44.6 °F - 44.6 °F 100% 30.44 in 4.0 mi Calm Calm - N/A   Overcast
2:55 AM 44.6 °F - 44.6 °F 100% 30.43 in 3.0 mi Calm Calm - N/A   Overcast
3:15 AM 44.6 °F - 44.6 °F 100% 30.42 in 2.5 mi Calm Calm - N/A   Drizzle
3:35 AM 44.6 °F - 44.6 °F 100% 30.42 in 2.0 mi Calm Calm - N/A Rain Rain
3:55 AM 44.6 °F - 44.6 °F 100% 30.41 in 1.8 mi Calm Calm - N/A Rain Light Rain
4:15 AM 44.6 °F - 44.6 °F 100% 30.41 in 1.8 mi Calm Calm - N/A   Overcast
4:35 AM 44.6 °F - 44.6 °F 100% 30.41 in 2.0 mi Calm Calm - N/A   Overcast
4:55 AM 44.6 °F - 44.6 °F 100% 30.41 in 1.5 mi Calm Calm - N/A   Overcast
5:15 AM 44.6 °F - 44.6 °F 100% 30.41 in 2.0 mi Calm Calm - N/A   Overcast
5:35 AM 46.4 °F - 46.4 °F 100% 30.40 in 3.0 mi Calm Calm - N/A   Overcast
5:55 AM 46.4 °F - 46.4 °F 100% 30.40 in 4.0 mi Calm Calm - N/A   Overcast
6:15 AM 46.4 °F - 46.4 °F 100% 30.40 in 3.0 mi Calm Calm - N/A   Overcast
6:35 AM 46.4 °F - 46.4 °F 100% 30.39 in 4.0 mi Calm Calm - N/A   Overcast
6:55 AM 44.6 °F - 44.6 °F 100% 30.40 in 3.0 mi Calm Calm - N/A   Overcast
7:15 AM 46.4 °F - 46.4 °F 100% 30.40 in 4.0 mi Calm Calm - N/A   Overcast
7:35 AM 46.4 °F - 46.4 °F 100% 30.39 in 4.0 mi Calm Calm - N/A   Overcast
7:55 AM 46.4 °F - 46.4 °F 100% 30.40 in 4.0 mi Calm Calm - N/A   Overcast
8:15 AM 46.4 °F - 46.4 °F 100% 30.40 in 5.0 mi Calm Calm - N/A   Overcast
8:35 AM 48.2 °F - 48.2 °F 100% 30.40 in 5.0 mi Calm Calm - N/A   Scattered Clouds
8:55 AM 50.0 °F - 50.0 °F 100% 30.40 in 10.0 mi Calm Calm - N/A   Clear
9:15 AM 51.8 °F - 50.0 °F 94% 30.39 in 10.0 mi ESE 3.5 mph - N/A   Clear
9:35 AM 53.6 °F - 50.0 °F 88% 30.39 in 10.0 mi Calm Calm - N/A   Clear
9:55 AM 53.6 °F - 50.0 °F 88% 30.39 in 10.0 mi Calm Calm - N/A   Clear
10:15 AM 55.4 °F - 51.8 °F 88% 30.39 in 10.0 mi SSW 3.5 mph - N/A   Scattered Clouds
10:35 AM 57.2 °F - 50.0 °F 77% 30.38 in 10.0 mi SSW 3.5 mph - N/A   Scattered Clouds
10:55 AM 57.2 °F - 50.0 °F 77% 30.37 in 10.0 mi SSE 6.9 mph - N/A   Clear
11:15 AM 59.0 °F - 51.8 °F 77% 30.37 in 10.0 mi SSE 3.5 mph - N/A   Clear
11:35 AM 60.8 °F - 51.8 °F 72% 30.36 in 10.0 mi South 3.5 mph - N/A   Clear
11:55 AM 62.6 °F - 51.8 °F 68% 30.35 in 10.0 mi SSE 4.6 mph - N/A   Clear
12:15 PM 62.6 °F - 51.8 °F 68% 30.33 in 4.0 mi Calm Calm - N/A   Haze
12:35 PM 62.6 °F - 51.8 °F 68% 30.32 in 10.0 mi Calm Calm - N/A   Scattered Clouds
12:55 PM 64.4 °F - 50.0 °F 59% 30.30 in 10.0 mi South 5.8 mph - N/A   Scattered Clouds
1:15 PM 64.4 °F - 51.8 °F 64% 30.29 in 10.0 mi SSE 8.1 mph - N/A   Scattered Clouds
1:35 PM 64.4 °F - 51.8 °F 64% 30.28 in 10.0 mi South 6.9 mph - N/A   Mostly Cloudy
1:55 PM 64.4 °F - 51.8 °F 64% 30.28 in 10.0 mi SSW 9.2 mph 16.1 mph N/A   Overcast
2:15 PM 64.4 °F - 51.8 °F 64% 30.27 in 10.0 mi South 5.8 mph - N/A   Overcast
2:35 PM 64.4 °F - 51.8 °F 64% 30.26 in 10.0 mi SSW 4.6 mph - N/A   Overcast
2:55 PM 66.2 °F - 51.8 °F 60% 30.26 in 10.0 mi SW 4.6 mph - N/A   Overcast
3:15 PM 64.4 °F - 51.8 °F 64% 30.25 in 10.0 mi SSW 6.9 mph - N/A   Overcast
3:35 PM 64.4 °F - 51.8 °F 64% 30.25 in 10.0 mi SSW 9.2 mph - N/A   Overcast
3:55 PM 64.4 °F - 51.8 °F 64% 30.24 in 10.0 mi SW 6.9 mph - N/A   Overcast
4:15 PM 64.4 °F - 51.8 °F 64% 30.23 in 10.0 mi SW 6.9 mph - N/A   Overcast
4:35 PM 62.6 °F - 51.8 °F 68% 30.23 in 10.0 mi SSW 4.6 mph - N/A   Overcast
4:55 PM 62.6 °F - 51.8 °F 68% 30.23 in 10.0 mi SSW 3.5 mph - N/A   Overcast
5:15 PM 62.6 °F - 51.8 °F 68% 30.22 in 10.0 mi South 5.8 mph - N/A   Overcast
5:35 PM 62.6 °F - 51.8 °F 68% 30.22 in 10.0 mi Calm Calm - N/A   Mostly Cloudy
5:55 PM 60.8 °F - 51.8 °F 72% 30.23 in 10.0 mi SW 3.5 mph - N/A   Mostly Cloudy
6:15 PM 59.0 °F - 50.0 °F 72% 30.23 in 10.0 mi Calm Calm - N/A   Scattered Clouds
6:35 PM 55.4 °F - 50.0 °F 82% 30.22 in 10.0 mi Calm Calm - N/A   Clear
6:55 PM 53.6 °F - 48.2 °F 82% 30.22 in 10.0 mi Calm Calm - N/A   Clear
7:15 PM 51.8 °F - 48.2 °F 88% 30.22 in 10.0 mi Calm Calm - N/A   Scattered Clouds
7:35 PM 51.8 °F - 48.2 °F 88% 30.21 in 10.0 mi Calm Calm - N/A   Scattered Clouds
7:55 PM 50.0 °F - 48.2 °F 94% 30.21 in 10.0 mi Calm Calm - N/A   Scattered Clouds
8:15 PM 48.2 °F - 48.2 °F 100% 30.21 in 10.0 mi Calm Calm - N/A   Clear
8:35 PM 48.2 °F - 48.2 °F 100% 30.21 in 10.0 mi Calm Calm - N/A   Scattered Clouds
8:55 PM 50.0 °F - 48.2 °F 94% 30.20 in 10.0 mi SW 3.5 mph - N/A   Scattered Clouds
9:15 PM 53.6 °F - 50.0 °F 88% 30.20 in 10.0 mi SSW 4.6 mph - N/A   Clear
9:35 PM 55.4 °F - 51.8 °F 88% 30.19 in 10.0 mi Calm Calm - N/A   Clear
9:55 PM 53.6 °F - 50.0 °F 88% 30.19 in 10.0 mi Calm Calm - N/A   Clear
10:15 PM 51.8 °F - 50.0 °F 94% 30.18 in 10.0 mi Calm Calm - N/A   Clear
10:35 PM 51.8 °F - 50.0 °F 94% 30.17 in 10.0 mi Calm Calm - N/A   Clear
10:55 PM 53.6 °F - 51.8 °F 94% 30.17 in 10.0 mi Calm Calm - N/A   Clear
11:15 PM 51.8 °F - 50.0 °F 94% 30.16 in 10.0 mi Calm Calm - N/A   Clear
11:35 PM 48.2 °F - 48.2 °F 100% 30.15 in 10.0 mi Calm Calm - N/A   Clear
11:55 PM 48.2 °F - 48.2 °F 100% 30.15 in 10.0 mi Calm Calm - N/A   Clear